This is the latest recevied weather packets stored in our database for station/object N2UFM. If no packets are shown the sender has not sent any weather packets the latest 1 day(s).
| Time | Temp. | Humidity | Pressure | Rain* | Wind** | Luminosity | Snow |
|---|---|---|---|---|---|---|---|
| 1836274851 | 22.22° C | 54% | 1020.1 hPa | 0 mm | 0 m/s | - | - |
| 1836274551 | 22.22° C | 56% | 1019.9 hPa | 0 mm | 0 m/s | - | - |
| 1836274401 | 22.22° C | 53% | 1020.2 hPa | 0 mm | 0 m/s | - | - |
| 1836274251 | 22.22° C | 56% | 1019.9 hPa | 0 mm | 0 m/s | - | - |
| 1836273951 | 22.22° C | 56% | 1019.9 hPa | 0 mm | 0 m/s | - | - |
| 1778031256 | 21.11° C | 62% | 1011.3 hPa | 0 mm | 2.24 m/s, 220° | - | - |
| 1778030956 | 21.11° C | 62% | 1011.3 hPa | 0 mm | 0.89 m/s, 258° | - | - |
| 1778030656 | 21.11° C | 62% | 1011.2 hPa | 0 mm | 1.34 m/s, 204° | - | - |
| 1778030355 | 21.11° C | 62% | 1011.1 hPa | 0 mm | 0.89 m/s, 213° | - | - |
| 1778030055 | 21.11° C | 62% | 1011.2 hPa | 0 mm | 0.89 m/s, 233° | - | - |
| 1778029755 | 21.67° C | 61% | 1011.2 hPa | 0 mm | 0.89 m/s, 229° | - | - |
| 1778029455 | 21.67° C | 61% | 1011.1 hPa | 0 mm | 0.45 m/s, 121° | - | - |
| 1778029155 | 21.67° C | 60% | 1010.9 hPa | 0 mm | 0.89 m/s, 222° | - | - |
| 1778028855 | 21.67° C | 60% | 1011 hPa | 0 mm | 0.89 m/s, 227° | - | - |
| 1778028554 | 21.67° C | 59% | 1010.9 hPa | 0 mm | 1.34 m/s, 232° | - | - |
| 1778028254 | 22.22° C | 59% | 1010.9 hPa | 0 mm | 1.34 m/s, 214° | - | - |
| 1778027954 | 22.22° C | 58% | 1010.7 hPa | 0 mm | 0.89 m/s, 226° | - | - |
| 1778027654 | 22.78° C | 57% | 1010.8 hPa | 0 mm | 0.89 m/s, 215° | - | - |
| 1778027354 | 23.33° C | 54% | 1010.6 hPa | 0 mm | 0.89 m/s, 186° | - | - |
| 1778027054 | 23.89° C | 50% | 1010.5 hPa | 0 mm | 0.89 m/s, 227° | - | - |
| 1778026753 | 24.44° C | 46% | 1010.3 hPa | 0 mm | 1.34 m/s, 242° | - | - |
| 1778026453 | 24.44° C | 46% | 1010.2 hPa | 0 mm | 1.34 m/s, 231° | - | - |
| 1778026153 | 25° C | 46% | 1010.3 hPa | 0 mm | 0.89 m/s, 226° | - | - |
| 1778025853 | 25° C | 45% | 1010.2 hPa | 0 mm | 2.24 m/s, 211° | - | - |
| 1778025553 | 25° C | 45% | 1010.1 hPa | 0 mm | 1.34 m/s, 257° | - | - |
* Rain latest hour (hover to see other rain measurements)
** Current wind speed in m/s (hover to see current wind gust speed)